Location: Fontevrault
(47.1823°N, 0.0493°E)
Time: 13:41:28
(UTC+00:00)

OBJECT-B - Pass Details

Date: 16 June 2021
Orbit: 414 x 423 km, 97.0° (Epoch: 05 June)

Event Time Altitude Azimuth Distance (km) Brightness Sun altitude
Rises 20:37:31 0° 205° (SSW) 2,352 4.3 -5.9°
Reaches altitude 10° 20:40:07 10° 229° (SW) 1,494 3.6 -6.2°
Maximum altitude 20:42:06 15° 268° (W) 1,211 3.7 -6.5°
Drops below altitude 10° 20:44:06 10° 307° (NW) 1,501 5.3 -6.7°
Sets 20:46:43 0° 331° (NNW) 2,370 6.4 -7.0°
